User: anonymous   Login
Location: Luz Observatory
(34.5000°N, 117.2833°W)
Time: 03:33:50
(UTC-07:00)
Language:

Okean 3 Rocket - Orbit

View from above orbital plane
View from above orbital plane
View from above satellite
View from above satellite

Ground track
Ground track

The orbit data is extracted from the following two-line orbital elements,

1 21398U 91039B   15243.76416397  .00000173  00000-0  20003-4 0  9993
2 21398  82.5225 116.2513 0021794 166.8902 260.9607 14.79508159306999
Epoch (UTC): 31 August 2015 18:20:23
Eccentricity: 0.0021794
inclination: 82.5225°
perigee height: 615 km
apogee height: 646 km
right ascension of ascending node: 116.2513°
argument of perigee: 166.8902°
revolutions per day: 14.79508159
mean anomaly at epoch: 260.9607°
orbit number at epoch: 30699

The dashed part of the orbit path shows where the satellite is in the earth's shadow,  

DLR